Location: Clanezzo
(45.7500°N, 9.6000°E)
Time: 11:17:37
(UTC+00:00)

CAS-4A - Pass Details

Date: 13 July 2022
Orbit: 521 x 536 km, 43.0° (Epoch: 18 August)

Event Time Altitude Azimuth Distance (km) Brightness Sun altitude
Rises 23:13:07 0° 271° (W) 2,642 ? -22.5°
Reaches altitude 10° 23:15:23 10° 266° (W) 1,753 ? -22.5°
Enters shadow 23:15:36 11° 266° (W) 1,673 ? -22.5°
